1506146400.72,65086,13.88,73404.0,-2.11,-2.91,-2.91,0,*5F
1506146401.93,65087,13.88,73408.3,-2.11,-2.91,-2.91,0,*5E
1506146403.15,65088,13.81,73418.3,-2.11,-2.91,-2.91,0,*51
1506146404.36,65089,13.88,73418.3,-2.11,-2.91,-2.87,0,*57
1506146405.58,65090,13.88,73394.8,-2.11,-2.91,-2.87,0,*5F
1506146406.8,65091,13.88,73418.0,-2.11,-2.87,-2.83,0,*5D
1506146408.01,65092,13.88,73424.3,-2.11,-2.83,-2.83,0,*5A
1506146409.23,65093,13.88,73416.3,-2.11,-2.83,-2.83,0,*5B
1506146410.42,65094,13.88,73416.5,-2.09,-2.87,-2.83,0,*51
1506146411.64,65095,13.88,73416.8,-2.11,-2.83,-2.83,0,*5D
1506146412.88,65096,13.88,73414.3,-2.11,-2.75,-2.83,0,*57
1506146414.13,65097,13.88,73410.0,-2.11,-2.71,-2.83,0,*52
1506146415.37,65098,13.81,73412.5,-2.09,-2.71,-2.75,0,*5D
1506146416.65,65099,13.88,73418.8,-2.11,-2.71,-2.71,0,*51
1506146417.92,65100,13.88,73416.0,-2.11,-2.75,-2.71,0,*54
1506146419.2,65101,13.88,73416.8,-2.11,-2.63,-2.71,0,*52
1506146420.45,65102,13.88,73420.0,-2.09,-2.71,-2.71,0,*5B
1506146421.7,65103,13.88,73420.5,-2.09,-2.71,-2.71,0,*5A
1506146422.94,65104,13.88,73418.8,-2.09,-2.71,-2.71,0,*5D
1506146424.19,65105,13.88,73418.3,-2.09,-2.71,-2.71,0,*5C
1506146425.44,65106,13.81,73408.8,-2.09,-2.71,-2.71,0,*5F
1506146426.69,65107,13.81,73420.8,-2.09,-2.71,-2.75,0,*5A
1506146427.93,65108,13.88,73418.5,-2.09,-2.75,-2.75,0,*51
1506146429.15,65109,13.88,73420.3,-2.09,-2.83,-2.75,0,*59
1506146430.37,65110,13.88,73418.0,-2.09,-2.83,-2.75,0,*51
1506146431.62,65111,13.88,73424.5,-2.09,-2.71,-2.75,0,*5D
1506146432.86,65112,13.88,73424.3,-2.09,-2.75,-2.71,0,*5E
1506146434.12,65113,13.88,73428.0,-2.09,-2.63,-2.63,0,*5B
1506146435.36,65114,13.88,73416.3,-2.09,-2.59,-2.63,0,*55
1506146436.61,65115,13.88,73396.3,-2.09,-2.71,-2.63,0,*5E
1506146437.85,65116,13.81,73426.0,-2.09,-2.71,-2.59,0,*54
1506146439.1,65117,13.88,73404.5,-2.09,-2.75,-2.71,0,*5B
1506146440.32,65118,13.81,73410.8,-2.09,-2.75,-2.83,0,*59
1506146441.56,65119,13.88,73410.5,-2.09,-2.71,-2.71,0,*51
1506146442.81,65120,13.88,73414.8,-2.09,-2.71,-2.71,0,*5B
1506146444.06,65121,13.81,73418.3,-2.09,-2.71,-2.71,0,*5A
1506146445.31,65122,13.88,73424.8,-2.09,-2.75,-2.71,0,*5D
1506146446.58,65123,13.88,73420.8,-2.07,-2.71,-2.71,0,*56
1506146447.83,65124,13.88,73434.8,-2.05,-2.71,-2.67,0,*54
1506146449.11,65125,13.88,73436.8,-2.07,-2.71,-2.71,0,*50
1506146450.39,65126,13.88,73430.3,-2.07,-2.71,-2.71,0,*53
1506146451.67,65127,13.88,73432.8,-2.07,-2.67,-2.71,0,*55
1506146452.94,65128,13.88,73430.5,-2.07,-2.67,-2.59,0,*50
1506146454.18,65129,13.88,73430.3,-2.05,-2.67,-2.59,0,*53
1506146455.42,65130,13.88,73434.3,-2.05,-2.59,-2.59,0,*56
1506146456.7,65131,13.81,73414.3,-2.07,-2.71,-2.71,0,*55
1506146457.95,65132,13.81,73426.0,-2.05,-2.71,-2.67,0,*53
1506146459.23,65133,13.81,73418.0,-2.07,-2.71,-2.67,0,*50
1506146460.51,65134,13.88,73416.8,-2.07,-2.71,-2.71,0,*50
1506146461.76,65135,13.88,73426.0,-2.05,-2.71,-2.71,0,*53
1506146463.01,65136,13.88,73420.5,-2.07,-2.79,-2.71,0,*5A
1506146464.21,65137,13.88,73414.0,-2.05,-2.87,-2.87,0,*51
1506146465.43,65138,13.88,73412.0,-2.07,-2.87,-2.87,0,*5C
1506146466.68,65139,13.88,73414.8,-2.07,-2.71,-2.79,0,*55
1506146467.95,65140,13.88,73410.0,-2.07,-2.71,-2.67,0,*54
1506146469.2,65141,13.88,73408.8,-2.05,-2.71,-2.71,0,*50
1506146470.48,65142,13.88,73412.0,-2.07,-2.71,-2.67,0,*56
1506146471.76,65143,13.88,73418.3,-2.07,-2.67,-2.71,0,*57
1506146473.03,65144,13.88,73422.0,-2.07,-2.71,-2.71,0,*57
1506146474.26,65145,13.88,73414.8,-2.07,-2.79,-2.79,0,*56
1506146475.51,65146,13.88,73418.0,-2.05,-2.71,-2.71,0,*57
1506146476.76,65147,13.88,73416.8,-2.05,-2.71,-2.71,0,*56
1506146477.95,65148,13.88,73416.0,-2.05,-2.79,-2.79,0,*59
1506146479.23,65149,13.88,73422.5,-2.07,-2.71,-2.67,0,*5D
1506146480.48,65150,13.88,73406.5,-2.05,-2.71,-2.67,0,*57
1506146481.73,65151,13.88,73420.0,-2.05,-2.67,-2.71,0,*56
1506146482.98,65152,13.88,73420.5,-2.05,-2.71,-2.71,0,*52
1506146484.23,65153,13.88,73418.0,-2.05,-2.67,-2.67,0,*53
1506146485.5,65154,13.88,73414.3,-2.07,-2.67,-2.59,0,*5B
1506146486.74,65155,13.88,73416.8,-2.05,-2.55,-2.59,0,*59
1506146488.01,65156,13.88,73408.5,-2.07,-2.59,-2.59,0,*54
1506146489.27,65157,13.88,73410.0,-2.05,-2.71,-2.67,0,*50
1506146490.52,65158,13.88,73412.5,-2.05,-2.71,-2.67,0,*5F
1506146491.79,65159,13.88,73418.5,-2.07,-2.71,-2.67,0,*5C
1506146493.04,65160,13.88,73410.8,-2.05,-2.67,-2.67,0,*53
1506146494.29,65161,13.88,73416.5,-2.05,-2.67,-2.67,0,*52
1506146495.54,65162,13.88,73422.5,-2.05,-2.67,-2.67,0,*51
1506146496.79,65163,13.88,73412.3,-2.05,-2.59,-2.67,0,*5D
1506146498.03,65164,13.88,73410.0,-2.05,-2.67,-2.67,0,*57
1506146499.25,65165,13.88,73412.0,-2.07,-2.79,-2.79,0,*54
1506146500.44,65166,13.88,73398.3,-2.01,-2.79,-2.79,0,*51
1506146501.63,65167,13.81,73416.8,-2.01,-2.83,-2.83,0,*50
1506146502.85,65168,13.88,73422.5,-2.07,-2.87,-2.83,0,*5D
1506146504.08,65169,13.88,73412.0,-2.07,-2.87,-2.83,0,*5C
1506146505.27,65170,13.88,73408.5,-2.05,-2.83,-2.83,0,*52
1506146506.49,65171,13.88,73406.8,-2.07,-2.83,-2.83,0,*51
1506146507.69,65172,13.88,73394.8,-2.05,-2.79,-2.83,0,*55
1506146508.88,65173,13.88,73394.5,-2.05,-2.83,-2.83,0,*51
1506146510.1,65174,13.88,73406.5,-2.07,-2.83,-2.79,0,*51
1506146511.29,65175,13.88,73432.5,-2.05,-2.79,-2.79,0,*57
1506146512.48,65176,13.88,73376.5,-2.05,-2.83,-2.83,0,*54
1506146513.67,65177,13.88,73404.5,-2.01,-3.03,-3.03,0,*51
1506146514.87,65178,13.88,73386.8,-2.01,-2.95,-3.03,0,*50
1506146516.09,65179,13.88,73342.3,-2.07,-3.19,-3.23,0,*50
1506146517.31,65180,13.88,73354.8,-2.07,-2.99,-3.07,0,*59
1506146518.55,65181,13.88,73402.3,-2.07,-2.95,-2.95,0,*5E
1506146519.75,65182,13.88,73406.5,-2.05,-2.87,-2.95,0,*5C
1506146520.97,65183,13.88,73408.3,-2.07,-2.83,-2.87,0,*58
1506146522.19,65184,13.81,73392.3,-2.07,-2.79,-2.79,0,*5B
1506146523.41,65185,13.88,73402.3,-2.07,-2.83,-2.83,0,*5A
1506146524.63,65186,13.88,73430.5,-2.07,-2.83,-2.83,0,*59
1506146525.85,65187,13.88,73402.5,-2.07,-2.83,-2.83,0,*58
1506146527.07,65188,13.88,73408.8,-2.07,-2.87,-2.87,0,*57
1506146528.28,65189,13.88,73412.3,-2.07,-2.83,-2.79,0,*53
1506146529.5,65190,13.88,73414.3,-2.07,-2.83,-2.79,0,*5B
1506146530.72,65191,13.88,73436.5,-2.07,-2.79,-2.79,0,*5F
1506146531.94,65192,13.88,73420.5,-2.07,-2.83,-2.83,0,*5C
1506146533.16,65193,13.88,73396.5,-2.07,-2.83,-2.83,0,*5D
1506146534.39,65194,13.88,73422.8,-2.07,-2.87,-2.95,0,*59
1506146535.62,65195,13.88,73450.0,-2.07,-2.95,-2.87,0,*58
1506146536.81,65196,13.88,73430.5,-2.05,-3.23,-3.31,0,*59
1506146538.0,65197,13.88,73276.8,-2.09,-3.15,-3.23,0,*52
1506146539.19,65198,13.88,73312.3,-2.09,-3.15,-3.15,0,*58
1506146540.38,65199,13.88,73364.0,-2.09,-3.03,-3.11,0,*5A
1506146541.57,65200,13.88,73382.3,-2.09,-3.11,-3.11,0,*5A
1506146542.79,65201,13.88,73390.3,-2.11,-3.03,-3.03,0,*52
1506146543.98,65202,13.88,73384.8,-2.09,-2.91,-2.91,0,*58
1506146545.2,65203,13.88,73382.5,-2.11,-2.91,-2.87,0,*57
1506146546.41,65204,13.88,73384.0,-2.11,-2.87,-2.87,0,*57
1506146547.61,65205,13.88,73362.5,-2.09,-2.87,-2.87,0,*5F
1506146548.83,65206,13.88,73354.5,-2.11,-2.87,-2.87,0,*55
1506146550.02,65207,13.88,73376.8,-2.09,-2.87,-2.91,0,*5A
1506146551.23,65208,13.88,73390.8,-2.11,-2.87,-2.91,0,*5C
1506146552.44,65209,13.81,73408.0,-2.11,-2.91,-2.91,0,*5A
1506146553.63,65210,13.88,73448.0,-2.09,-2.91,-2.91,0,*5B
1506146554.81,65211,13.88,73408.5,-2.09,-2.91,-2.91,0,*5A
1506146556.03,65212,13.88,73396.0,-2.11,-2.91,-2.91,0,*50
1506146557.21,65213,13.88,73392.0,-2.09,-2.91,-2.91,0,*58
1506146558.43,65214,13.88,73426.8,-2.11,-2.91,-2.91,0,*56
1506146559.62,65215,13.88,73418.3,-2.09,-2.87,-2.87,0,*5E
1506146560.81,65216,13.88,73402.0,-2.09,-2.87,-2.87,0,*5D
1506146562.03,65217,13.88,73424.8,-2.11,-2.83,-2.83,0,*55
1506146563.27,65218,13.88,73428.3,-2.11,-2.75,-2.83,0,*53
1506146564.46,65219,13.88,73424.5,-2.09,-2.83,-2.87,0,*56
1506146565.65,65220,13.88,73416.8,-2.09,-2.87,-2.87,0,*58
1506146566.84,65221,13.88,73430.5,-2.09,-2.87,-2.83,0,*5D
1506146568.03,65222,13.88,73426.3,-2.09,-2.83,-2.83,0,*5A
1506146569.22,65223,13.81,73422.3,-2.09,-2.83,-2.83,0,*5B
1506146570.44,65224,13.88,73424.8,-2.09,-2.83,-2.75,0,*55
1506146571.63,65225,13.88,73434.8,-2.09,-2.87,-2.83,0,*59
1506146572.88,65226,13.88,73410.3,-2.09,-2.75,-2.75,0,*5E
1506146574.07,65227,13.88,73408.0,-2.09,-2.83,-2.83,0,*5F
1506146575.29,65228,13.88,73414.5,-2.07,-2.79,-2.79,0,*5E
1506146576.54,65229,13.88,73412.5,-2.09,-2.75,-2.75,0,*51
1506146577.73,65230,13.88,73422.8,-2.09,-2.83,-2.83,0,*59
1506146578.92,65231,13.88,73414.3,-2.09,-2.87,-2.87,0,*58
1506146580.11,65232,13.88,73414.0,-2.09,-2.83,-2.83,0,*5B
1506146581.33,65233,13.88,73404.8,-2.07,-2.79,-2.79,0,*54
1506146582.52,65234,13.88,73434.5,-2.09,-2.87,-2.83,0,*59
1506146583.74,65235,13.88,73422.3,-2.09,-2.75,-2.83,0,*55
1506146584.96,65236,13.88,73420.3,-2.09,-2.83,-2.75,0,*56
1506146586.2,65237,13.88,73422.5,-2.09,-2.75,-2.71,0,*5A
1506146587.45,65238,13.88,73420.0,-2.09,-2.75,-2.71,0,*55
1506146588.7,65239,13.88,73420.3,-2.09,-2.71,-2.75,0,*54
1506146589.94,65240,13.88,73414.8,-2.09,-2.75,-2.75,0,*5E
1506146591.19,65241,13.88,73418.3,-2.09,-2.75,-2.75,0,*5F
1506146592.47,65242,13.88,73404.0,-2.07,-2.71,-2.71,0,*52
1506146593.69,65243,13.88,73406.0,-2.07,-2.83,-2.79,0,*56
1506146594.87,65244,13.88,73402.8,-2.09,-2.91,-2.91,0,*5A
1506146596.11,65245,13.88,73402.3,-2.07,-2.95,-2.95,0,*55
1506146597.33,65246,13.88,73404.8,-2.07,-2.95,-2.87,0,*55
1506146598.56,65247,13.88,73412.0,-2.07,-2.87,-2.95,0,*54
1506146599.75,65248,13.88,73418.3,-2.09,-2.91,-2.91,0,*56
1506146600.94,65249,13.88,73420.8,-2.09,-2.87,-2.87,0,*57
1506146602.13,65250,13.88,73422.5,-2.09,-2.87,-2.83,0,*5B
1506146603.35,65251,13.88,73420.8,-2.11,-2.87,-2.83,0,*53
1506146604.57,65252,13.88,73426.3,-2.09,-2.75,-2.87,0,*50
1506146605.76,65253,13.88,73428.5,-2.09,-2.87,-2.87,0,*5C
1506146606.98,65254,13.88,73426.0,-2.11,-2.87,-2.87,0,*52
1506146608.17,65255,13.88,73430.3,-2.09,-2.87,-2.83,0,*5E
1506146609.39,65256,13.88,73434.0,-2.07,-2.79,-2.79,0,*57
1506146610.58,65257,13.88,73424.3,-2.09,-2.83,-2.83,0,*58
1506146611.77,65258,13.88,73438.8,-2.09,-2.87,-2.87,0,*57
1506146613.02,65259,13.88,73432.8,-2.09,-2.75,-2.75,0,*56
1506146614.27,65260,13.88,73436.0,-2.09,-2.75,-2.71,0,*58
1506146615.51,65261,13.88,73438.0,-2.09,-2.75,-2.71,0,*59
1506146616.76,65262,13.88,73432.8,-2.09,-2.75,-2.71,0,*5A
1506146618.04,65263,13.88,73432.5,-2.07,-2.71,-2.71,0,*51
1506146619.29,65264,13.88,73430.5,-2.05,-2.71,-2.71,0,*54
1506146620.54,65265,13.88,73430.0,-2.07,-2.71,-2.79,0,*5F
1506146621.81,65266,13.88,73432.5,-2.07,-2.71,-2.71,0,*54
1506146623.09,65267,13.88,73422.8,-2.07,-2.71,-2.71,0,*55
1506146624.37,65268,13.88,73416.0,-2.07,-2.71,-2.67,0,*5D
1506146625.59,65269,13.88,73426.8,-2.07,-2.79,-2.79,0,*5B
1506146626.84,65270,13.88,73426.0,-2.07,-2.71,-2.79,0,*5B
1506146628.08,65271,13.88,73428.8,-2.07,-2.71,-2.79,0,*5A
1506146629.33,65272,13.88,73430.3,-2.05,-2.67,-2.67,0,*53
1506146630.6,65273,13.81,73422.3,-2.07,-2.67,-2.71,0,*57
1506146631.88,65274,13.88,73420.0,-2.07,-2.67,-2.67,0,*57
1506146633.16,65275,13.88,73418.0,-2.07,-2.71,-2.71,0,*56
1506146634.43,65276,13.88,73418.3,-2.07,-2.71,-2.67,0,*52
1506146635.71,65277,13.88,73414.8,-2.07,-2.71,-2.71,0,*54
1506146636.96,65278,13.88,73418.0,-2.05,-2.71,-2.67,0,*5E
1506146638.24,65279,13.81,73412.3,-2.07,-2.71,-2.67,0,*5D
1506146639.52,65280,13.88,73420.5,-2.07,-2.67,-2.71,0,*5B
1506146640.79,65281,13.88,73418.5,-2.07,-2.67,-2.71,0,*5A
1506146642.07,65282,13.88,73420.5,-2.07,-2.71,-2.71,0,*5E
1506146643.29,65283,13.88,73420.8,-2.07,-2.83,-2.83,0,*5F
1506146644.51,65284,13.88,73420.5,-2.07,-2.83,-2.83,0,*58
1506146645.74,65285,13.88,73404.3,-2.07,-2.95,-2.95,0,*59
1506146646.96,65286,13.88,73396.3,-2.07,-2.99,-3.07,0,*5C
1506146648.2,65287,13.88,73400.0,-2.07,-2.95,-2.95,0,*5B
1506146649.42,65288,13.88,73400.0,-2.07,-2.87,-2.87,0,*54
1506146650.61,65289,13.88,73400.0,-2.05,-2.87,-2.87,0,*57
1506146651.84,65290,13.88,73408.5,-2.07,-2.83,-2.87,0,*59
1506146653.05,65291,13.88,73408.5,-2.07,-2.83,-2.79,0,*59
1506146654.27,65292,13.88,73400.0,-2.07,-2.83,-2.79,0,*5A
1506146655.46,65293,13.88,73402.8,-2.05,-2.79,-2.83,0,*59
1506146656.68,65294,13.88,73410.0,-2.07,-2.83,-2.79,0,*5C
1506146657.88,65295,13.88,73410.5,-2.05,-2.79,-2.83,0,*5F
1506146659.16,65296,13.88,73410.5,-2.07,-2.71,-2.71,0,*5B
1506146660.35,65297,13.88,73408.8,-2.05,-2.79,-2.79,0,*58
1506146661.63,65298,13.88,73416.8,-2.07,-2.71,-2.71,0,*55
1506146662.85,65299,13.88,73414.3,-2.07,-2.83,-2.83,0,*54
1506146664.06,65300,13.88,73412.5,-2.07,-2.83,-2.79,0,*50
1506146665.26,65301,13.88,73412.5,-2.05,-2.79,-2.83,0,*53
1506146666.45,65302,13.88,73412.5,-2.05,-2.83,-2.83,0,*55
1506146667.69,65303,13.88,73398.3,-2.07,-2.95,-2.95,0,*56
1506146668.91,65304,13.88,73392.8,-2.07,-2.99,-2.99,0,*51
1506146670.15,65305,13.88,73406.3,-2.07,-2.95,-2.95,0,*50
1506146671.37,65306,13.88,73398.0,-2.07,-2.99,-2.99,0,*53
1506146672.57,65307,13.88,73408.0,-2.09,-3.03,-3.03,0,*5C
1506146673.79,65308,13.88,73416.0,-2.07,-2.87,-2.87,0,*5D
1506146675.01,65309,13.88,73416.0,-2.07,-2.87,-2.87,0,*5C
1506146676.23,65310,13.88,73406.0,-2.07,-2.87,-2.87,0,*54
1506146677.45,65311,13.88,73400.5,-2.07,-2.83,-2.83,0,*55
1506146678.67,65312,13.88,73406.0,-2.07,-2.83,-2.83,0,*56
1506146679.89,65313,13.88,73410.8,-2.07,-2.79,-2.79,0,*57
1506146681.11,65314,13.88,73408.3,-2.07,-2.83,-2.79,0,*55
1506146682.33,65315,13.88,73408.0,-2.09,-2.83,-2.75,0,*56
1506146683.57,65316,13.88,73406.5,-2.09,-2.75,-2.75,0,*5C
1506146684.82,65317,13.88,73416.5,-2.09,-2.75,-2.71,0,*59
1506146686.07,65318,13.88,73406.0,-2.09,-2.75,-2.75,0,*52
1506146687.32,65319,13.88,73418.8,-2.09,-2.75,-2.75,0,*53
1506146688.56,65320,13.88,73404.8,-2.07,-2.83,-2.71,0,*5A
1506146689.82,65321,13.88,73408.5,-2.07,-2.79,-2.71,0,*5E
1506146691.09,65322,13.88,73408.5,-2.07,-2.71,-2.71,0,*55
1506146692.37,65323,13.88,73414.3,-2.07,-2.71,-2.67,0,*53
1506146693.65,65324,13.88,73404.8,-2.07,-2.71,-2.67,0,*54
1506146694.92,65325,13.88,73410.8,-2.07,-2.59,-2.67,0,*5F
1506146696.17,65326,13.88,73414.0,-2.05,-2.67,-2.59,0,*5E
1506146697.44,65327,13.88,73412.3,-2.07,-2.67,-2.59,0,*5D
1506146698.71,65328,13.88,73418.5,-2.07,-2.59,-2.59,0,*5F
1506146699.98,65329,13.88,73414.5,-2.07,-2.67,-2.67,0,*5E
1506146701.26,65330,13.88,73412.8,-2.07,-2.55,-2.67,0,*57
1506146702.53,65331,13.88,73414.3,-2.07,-2.59,-2.55,0,*5B
1506146703.78,65332,13.88,73422.8,-2.05,-2.59,-2.67,0,*5B
1506146705.03,65333,13.88,73416.5,-2.05,-2.71,-2.59,0,*5D
1506146706.3,65334,13.88,73414.0,-2.07,-2.67,-2.67,0,*52
1506146707.55,65335,13.88,73416.3,-2.05,-2.67,-2.67,0,*51
1506146708.8,65336,13.88,73414.3,-2.05,-2.67,-2.67,0,*52
1506146710.05,65337,13.88,73422.5,-2.05,-2.67,-2.67,0,*53
1506146711.29,65338,13.88,73414.5,-2.05,-2.67,-2.59,0,*51
1506146712.54,65339,13.88,73414.5,-2.05,-2.67,-2.59,0,*50
1506146713.81,65340,13.88,73416.5,-2.07,-2.59,-2.59,0,*51
1506146715.08,65341,13.88,73414.5,-2.07,-2.67,-2.67,0,*50
1506146716.33,65342,13.81,73410.8,-2.05,-2.71,-2.67,0,*56
1506146717.58,65343,13.88,73406.8,-2.05,-2.71,-2.71,0,*50
1506146718.83,65344,13.88,73408.5,-2.01,-2.67,-2.63,0,*57
1506146720.1,65345,13.88,73412.0,-1.99,-2.63,-2.55,0,*55
1506146721.35,65346,13.88,73408.8,-2.01,-2.63,-2.63,0,*51
1506146722.61,65347,13.88,73402.0,-2.01,-2.63,-2.63,0,*50
1506146723.85,65348,13.88,73406.0,-2.01,-2.67,-2.63,0,*5B
1506146725.1,65349,13.88,73404.0,-2.01,-2.63,-2.67,0,*5A
1506146726.35,65350,13.88,73410.8,-2.01,-2.63,-2.63,0,*56
1506146727.59,65351,13.88,73402.8,-2.01,-2.67,-2.67,0,*57
1506146728.84,65352,13.88,73396.0,-2.05,-2.67,-2.67,0,*50
1506146730.09,65353,13.88,73396.0,-2.05,-2.71,-2.67,0,*56
1506146731.34,65354,13.88,73396.8,-2.05,-2.71,-2.71,0,*56
1506146732.59,65355,13.88,73400.5,-2.05,-2.67,-2.67,0,*57
1506146733.84,65356,13.88,73406.5,-2.05,-2.67,-2.67,0,*54
1506146735.09,65357,13.88,73412.5,-2.01,-2.75,-2.67,0,*52
1506146736.33,65358,13.88,73404.8,-2.01,-2.67,-2.67,0,*5E
1506146737.58,65359,13.88,73400.8,-2.01,-2.75,-2.67,0,*5C
1506146738.82,65360,13.88,73408.3,-2.01,-2.75,-2.67,0,*56
1506146740.07,65361,13.88,73400.0,-2.01,-2.67,-2.63,0,*50
1506146741.31,65362,13.81,73410.8,-2.01,-2.67,-2.67,0,*57
1506146742.56,65363,13.88,73412.5,-2.01,-2.75,-2.67,0,*55
1506146743.75,65364,13.88,73396.8,-2.05,-2.79,-2.79,0,*55
1506146745.0,65365,13.88,73398.5,-2.01,-2.67,-2.67,0,*50
1506146746.25,65366,13.88,73398.5,-2.01,-2.63,-2.67,0,*57
1506146747.49,65367,13.81,73400.5,-2.01,-2.67,-2.67,0,*52
1506146748.74,65368,13.88,73394.8,-2.01,-2.67,-2.63,0,*59
1506146750.01,65369,13.88,73390.0,-1.99,-2.63,-2.67,0,*5A
1506146751.26,65370,13.88,73398.0,-2.01,-2.67,-2.67,0,*54
1506146752.5,65371,13.88,73406.0,-2.01,-2.75,-2.75,0,*55
1506146753.75,65372,13.88,73400.8,-2.01,-2.67,-2.75,0,*55
1506146754.99,65373,13.81,73402.3,-2.01,-2.75,-2.67,0,*54
1506146756.24,65374,13.88,73412.3,-2.01,-2.63,-2.67,0,*54
1506146757.49,65375,13.88,73406.3,-2.01,-2.75,-2.67,0,*52
1506146758.71,65376,13.88,73406.8,-2.01,-2.79,-2.75,0,*5E
1506146759.93,65377,13.88,73404.3,-2.01,-2.79,-2.75,0,*5F
1506146761.2,65378,13.88,73400.8,-1.99,-2.75,-2.67,0,*5D
1506146762.45,65379,13.88,73408.8,-2.01,-2.67,-2.63,0,*59
1506146763.72,65380,13.88,73408.3,-1.99,-2.67,-2.67,0,*59
1506146764.97,65381,13.88,73406.5,-2.01,-2.63,-2.67,0,*5E
1506146766.22,65382,13.88,73408.5,-2.01,-2.63,-2.67,0,*5D
1506146767.47,65383,13.88,73416.0,-2.01,-2.63,-2.63,0,*58
1506146768.72,65384,13.88,73414.0,-2.01,-2.55,-2.63,0,*5A
1506146769.97,65385,13.88,73404.8,-2.01,-2.63,-2.55,0,*5B
1506146771.24,65386,13.88,73410.5,-1.99,-2.67,-2.67,0,*5F
1506146772.48,65387,13.88,73410.5,-2.01,-2.67,-2.67,0,*5C
1506146773.73,65388,13.88,73406.3,-2.01,-2.67,-2.67,0,*53
1506146774.95,65389,13.88,73402.5,-2.01,-2.79,-2.67,0,*5D
1506146776.19,65390,13.88,73408.0,-2.01,-2.75,-2.75,0,*5A
1506146777.44,65391,13.88,73406.8,-2.01,-2.75,-2.67,0,*58
1506146778.68,65392,13.88,73410.0,-2.01,-2.67,-2.75,0,*5B
1506146779.94,65393,13.88,73406.3,-2.01,-2.63,-2.63,0,*59
1506146781.21,65394,13.88,73406.5,-1.99,-2.63,-2.55,0,*59
1506146782.49,65395,13.88,73406.3,-1.99,-2.63,-2.55,0,*58
1506146783.77,65396,13.88,73410.3,-1.99,-2.63,-2.63,0,*5E
1506146785.04,65397,13.88,73406.8,-1.99,-2.67,-2.63,0,*5B
1506146786.28,65398,13.88,73410.0,-2.01,-2.67,-2.67,0,*52
1506146787.53,65399,13.88,73406.5,-2.01,-2.67,-2.67,0,*53
1506146788.8,65400,13.88,73408.0,-1.99,-2.75,-2.67,0,*55
1506146790.05,65401,13.88,73414.8,-2.01,-2.75,-2.67,0,*56
1506146791.29,65402,13.88,73412.3,-2.01,-2.67,-2.67,0,*56
1506146792.54,65403,13.88,73412.0,-2.01,-2.67,-2.67,0,*57
1506146793.78,65404,13.88,73412.8,-2.01,-2.75,-2.67,0,*53
1506146795.0,65405,13.88,73412.0,-2.01,-2.79,-2.75,0,*5D
1506146796.25,65406,13.88,73414.5,-2.01,-2.75,-2.75,0,*52
1506146797.46,65407,13.88,73420.8,-2.01,-2.75,-2.79,0,*5F
1506146798.65,65408,13.88,73400.0,-2.01,-2.79,-2.79,0,*5C
1506146799.87,65409,13.88,73402.3,-1.99,-2.79,-2.79,0,*5F
1506146801.11,65410,13.88,73400.8,-2.01,-2.67,-2.67,0,*55
1506146802.36,65411,13.88,73406.5,-2.01,-2.75,-2.67,0,*57
1506146803.58,65412,13.88,73400.5,-2.01,-2.79,-2.75,0,*5B
1506146804.83,65413,13.88,73408.8,-2.01,-2.75,-2.75,0,*56
1506146806.1,65414,13.88,73408.0,-1.99,-2.75,-2.75,0,*53
1506146807.35,65415,13.88,73402.8,-2.01,-2.75,-2.67,0,*53
1506146808.59,65416,13.88,73406.3,-2.01,-2.67,-2.63,0,*57
1506146809.84,65417,13.88,73410.3,-2.01,-2.67,-2.75,0,*51
1506146811.08,65418,13.88,73412.8,-2.01,-2.67,-2.75,0,*5E
1506146812.32,65419,13.88,73404.0,-2.01,-2.67,-2.63,0,*58
1506146813.57,65420,13.88,73400.3,-2.01,-2.63,-2.63,0,*56
1506146814.82,65421,13.88,73402.8,-2.01,-2.67,-2.67,0,*57
1506146816.07,65422,13.88,73396.8,-1.99,-2.79,-2.75,0,*5A
1506146817.28,65423,13.88,73416.0,-1.99,-2.79,-2.79,0,*57
1506146818.5,65424,13.88,73404.8,-1.99,-2.83,-2.83,0,*50
1506146819.69,65425,13.88,73408.8,-2.01,-2.83,-2.83,0,*53
1506146820.91,65426,13.88,73402.5,-1.99,-2.83,-2.83,0,*52
1506146822.09,65427,13.88,73392.3,-2.01,-2.79,-2.79,0,*51
1506146823.37,65428,13.88,73388.5,-1.99,-2.75,-2.67,0,*5F
1506146824.61,65429,13.88,73414.5,-2.01,-2.75,-2.63,0,*58
1506146825.89,65430,13.88,73406.5,-1.99,-2.75,-2.67,0,*56
1506146827.16,65431,13.88,73406.8,-1.99,-2.75,-2.67,0,*57
1506146828.35,65432,13.88,73400.8,-2.01,-2.79,-2.79,0,*55
1506146829.63,65433,13.88,73410.0,-1.99,-2.75,-2.75,0,*56
1506146830.82,65434,13.88,73416.5,-2.01,-2.79,-2.79,0,*53
1506146832.01,65435,13.88,73420.5,-2.01,-2.79,-2.79,0,*52
1506146833.2,65436,13.88,73418.5,-2.01,-2.79,-2.83,0,*54
1506146834.42,65437,13.88,73422.3,-1.99,-2.79,-2.83,0,*57
1506146835.64,65438,13.88,73418.5,-2.01,-2.79,-2.75,0,*53
1506146836.88,65439,13.88,73418.5,-2.01,-2.75,-2.75,0,*5E
1506146838.13,65440,13.88,73418.0,-2.01,-2.75,-2.75,0,*50
1506146839.37,65441,13.88,73416.3,-2.01,-2.67,-2.67,0,*51
1506146840.62,65442,13.88,73420.0,-2.01,-2.67,-2.67,0,*52
1506146841.87,65443,13.88,73420.3,-2.01,-2.63,-2.67,0,*57
1506146843.11,65444,13.88,73420.5,-2.01,-2.67,-2.63,0,*50
1506146844.38,65445,13.88,73418.5,-1.99,-2.67,-2.63,0,*53
1506146845.63,65446,13.88,73422.3,-2.01,-2.67,-2.67,0,*56
1506146846.87,65447,13.88,73422.3,-2.01,-2.67,-2.63,0,*53
1506146848.12,65448,13.88,73420.3,-2.01,-2.67,-2.67,0,*58
1506146849.31,65449,13.88,73424.5,-2.01,-2.79,-2.79,0,*59
1506146850.55,65450,13.88,73426.5,-2.01,-2.75,-2.67,0,*52
1506146851.8,65451,13.88,73430.5,-2.01,-2.75,-2.75,0,*50
1506146853.07,65452,13.88,73430.8,-1.99,-2.67,-2.67,0,*51
1506146854.29,65453,13.88,73432.0,-2.01,-2.75,-2.79,0,*5E
1506146855.56,65454,13.88,73422.5,-1.99,-2.75,-2.75,0,*57
1506146856.84,65455,13.88,73414.8,-1.99,-2.63,-2.75,0,*51
1506146858.08,65456,13.88,73404.8,-2.01,-2.67,-2.63,0,*53
1506146859.35,65457,13.88,73404.5,-1.99,-2.67,-2.63,0,*50
1506146860.62,65458,13.88,73390.5,-1.99,-2.67,-2.67,0,*5B
1506146861.9,65459,13.88,73418.0,-1.99,-2.67,-2.67,0,*5A
1506146863.14,65460,13.88,73416.3,-2.01,-2.75,-2.75,0,*52
1506146864.36,65461,13.88,73396.0,-1.99,-2.79,-2.79,0,*51
1506146865.61,65462,13.88,73378.8,-2.01,-2.75,-2.75,0,*50
1506146866.85,65463,13.88,73440.5,-2.01,-2.75,-2.75,0,*51
1506146868.09,65464,13.88,73414.0,-2.01,-2.67,-2.67,0,*56
1506146869.34,65465,13.88,73408.3,-2.01,-2.67,-2.67,0,*57
1506146870.58,65466,13.88,73422.0,-2.01,-2.75,-2.75,0,*54
1506146871.83,65467,13.88,73426.8,-2.01,-2.75,-2.67,0,*56
1506146873.1,65468,13.88,73430.8,-1.99,-2.67,-2.63,0,*5C
1506146874.38,65469,13.88,73426.0,-1.99,-2.63,-2.63,0,*59
1506146875.63,65470,13.88,73432.0,-2.01,-2.67,-2.67,0,*53
1506146876.87,65471,13.88,73422.3,-2.01,-2.67,-2.75,0,*51
1506146878.12,65472,13.88,73422.8,-1.99,-2.79,-2.75,0,*5F
1506146879.39,65473,13.88,73422.8,-1.99,-2.67,-2.75,0,*51
1506146880.64,65474,13.88,73428.0,-2.01,-2.63,-2.63,0,*57
1506146881.88,65475,13.88,73426.5,-2.01,-2.67,-2.63,0,*52
1506146883.15,65476,13.88,73428.5,-1.99,-2.67,-2.63,0,*53
1506146884.43,65477,13.88,73434.3,-1.99,-2.67,-2.63,0,*52
1506146885.7,65478,13.88,73424.3,-1.99,-2.67,-2.63,0,*5D
1506146886.97,65479,13.88,73430.8,-1.99,-2.75,-2.67,0,*5B
1506146888.16,65480,13.88,73430.3,-2.01,-2.79,-2.79,0,*5C
1506146889.43,65481,13.88,73434.5,-1.99,-2.67,-2.75,0,*5C
1506146890.71,65482,13.88,73436.5,-1.99,-2.75,-2.63,0,*5B
1506146891.92,65483,13.88,73430.0,-1.99,-2.79,-2.79,0,*5D
1506146893.14,65484,13.88,73428.3,-1.99,-2.79,-2.79,0,*5A
1506146894.36,65485,13.88,73428.5,-2.01,-2.75,-2.79,0,*55
1506146895.6,65486,13.88,73422.8,-2.01,-2.75,-2.75,0,*5A
1506146896.87,65487,13.88,73396.8,-1.99,-2.75,-2.75,0,*59
1506146898.12,65488,13.88,73404.3,-2.01,-2.75,-2.67,0,*57
1506146899.39,65489,13.88,73456.0,-1.99,-2.75,-2.75,0,*57
1506146900.64,65490,13.88,73400.5,-2.01,-2.75,-2.75,0,*5D
1506146901.89,65491,13.88,73402.3,-1.99,-2.79,-2.75,0,*52
1506146903.08,65492,13.88,73414.5,-2.01,-2.83,-2.79,0,*5A
1506146904.26,65493,13.88,73414.8,-2.01,-2.79,-2.79,0,*5E
1506146905.51,65494,13.88,73424.8,-1.99,-2.75,-2.79,0,*57
1506146906.78,65495,13.88,73432.5,-1.99,-2.75,-2.75,0,*5A
1506146908.0,65496,13.88,73440.8,-2.01,-2.79,-2.75,0,*57
1506146909.22,65497,13.88,73440.8,-1.99,-2.79,-2.79,0,*58
1506146910.43,65498,13.88,73442.0,-1.99,-2.83,-2.79,0,*52
1506146911.62,65499,13.88,73450.5,-2.01,-2.79,-2.79,0,*54